Location: Cheyres
(46.8153°N, 6.7877°E)
Time: 09:14:26
(UTC+00:00)

FALCONSAT 3 - Visible Passes

Search period start: 29 June 2022 00:00
Search period end: 09 July 2022 00:00
Orbit: 402 x 407 km, 35.4° (Epoch: 28 June)

Date Brightness Start Highest point End Pass type
(mag) Time Alt. Az. Time Alt. Az. Time Alt. Az.
03 Jul ? 20:23:25 10° SSW 20:24:34 11° S 20:25:44 10° SSE visible
04 Jul ? 21:06:36 10° SSW 21:07:04 11° SSW 21:07:04 11° SSW visible
05 Jul ? 20:12:30 10° SSW 20:13:46 12° S 20:15:01 10° SSE visible
